Teterboro, NJ

10:09 AM EDT on May 23, 2017 (GMT -0400)
Teterboro

Weather History for KTEB - May, 2013

Change the Weather History Date:

Saturday, May 18, 2013

  Actual Average Record
Temperature  
Mean Temperature 58 °F -  
Max Temperature 68 °F 69 °F 97 °F (2017)
Min Temperature 52 °F 49 °F 42 °F (2003)
Degree Days  
Heating Degree Days 7    
Growing Degree Days 8 (Base 50)    
Moisture  
Dew Point 49 °F    
Average Humidity 69    
Maximum Humidity 80    
Minimum Humidity 48    
Precipitation  
Precipitation 0.01 in - - ()
Sea Level Pressure  
Sea Level Pressure 30.27 in    
Wind  
Wind Speed 3 mph (South)    
Max Wind Speed 9 mph    
Max Gust Speed -    
Visibility 10 miles    
Events Rain    
Averages and records for this station are not official NWS values.
T = Trace of Precipitation, MM = Missing Value Source: NWS Daily Summary

Daily Weather History Graph

Daily Weather History Graph

Search for Another Location

Airport or City:

Trip Planner

Search our weather history database for the weather conditions in past years. The results will help you decide how hot, cold, wet, or windy it might be!

Date:

Astronomy

May. 18, 2013 Rise Set
Actual Time 5:35 AM EDT 8:10 PM EDT
Civil Twilight 5:04 AM EDT 8:41 PM EDT
Nautical Twilight 4:25 AM EDT 9:20 PM EDT
Astronomical Twilight 3:41 AM EDT 10:05 PM EDT
Moon 1:08 PM EDT (5/18) 1:29 AM EDT (5/18)
Length of Visible Light 15h 37m
Length of Day
14h 34m
First Quarter, 55% of the Moon is Illuminated
May 18
First Quarter
May 25
Full
May 31
Last Quarter
Jun 8
New
Jun 16
First Quarter

Hourly Weather History & Observations

Time (EDT) Temp. Dew Point Humidity Pressure Visibility Wind Dir Wind Speed Gust Speed Precip Events Conditions
12:51 AM 57.9 °F 44.1 °F 60% 30.19 in 10.0 mi Calm Calm - N/A   Clear
1:51 AM 55.9 °F 44.1 °F 64% 30.20 in 10.0 mi NE 3.5 mph - N/A   Clear
2:51 AM 54.0 °F 45.0 °F 72% 30.21 in 10.0 mi Calm Calm - N/A   Clear
3:51 AM 55.0 °F 46.0 °F 72% 30.22 in 10.0 mi Calm Calm - N/A   Clear
4:51 AM 53.1 °F 46.0 °F 77% 30.23 in 10.0 mi Calm Calm - N/A   Clear
5:51 AM 52.0 °F 46.0 °F 80% 30.25 in 10.0 mi Calm Calm - N/A   Clear
6:51 AM 54.0 °F 46.9 °F 77% 30.27 in 10.0 mi Calm Calm - N/A   Mostly Cloudy
7:51 AM 55.9 °F 48.0 °F 75% 30.28 in 10.0 mi Calm Calm - N/A   Overcast
8:51 AM 60.1 °F 50.0 °F 69% 30.29 in 10.0 mi Calm Calm - N/A   Overcast
9:51 AM 63.0 °F 48.0 °F 58% 30.30 in 10.0 mi South 3.5 mph - N/A   Overcast
10:51 AM 64.9 °F 45.0 °F 48% 30.29 in 10.0 mi SSW 8.1 mph - N/A   Scattered Clouds
11:51 AM 64.0 °F 46.9 °F 54% 30.30 in 10.0 mi South 8.1 mph - N/A   Overcast
12:51 PM 64.0 °F 48.0 °F 56% 30.29 in 10.0 mi SSE 9.2 mph - N/A   Overcast
1:51 PM 63.0 °F 50.0 °F 63% 30.29 in 10.0 mi South 8.1 mph - 0.00 in Rain Light Rain
2:51 PM 61.0 °F 53.1 °F 75% 30.29 in 10.0 mi South 4.6 mph - 0.01 in Rain Light Rain
3:51 PM 62.1 °F 54.0 °F 75% 30.29 in 10.0 mi South 4.6 mph - 0.00 in Rain Light Rain
4:51 PM 62.1 °F 54.0 °F 75% 30.29 in 10.0 mi South 6.9 mph - 0.00 in Rain Light Rain
5:51 PM 61.0 °F 50.0 °F 67% 30.28 in 10.0 mi South 5.8 mph - 0.00 in   Overcast
6:51 PM 61.0 °F 50.0 °F 67% 30.28 in 10.0 mi South 4.6 mph - 0.00 in   Overcast
7:51 PM 61.0 °F 52.0 °F 72% 30.30 in 10.0 mi South 6.9 mph - N/A   Overcast
8:51 PM 60.1 °F 52.0 °F 75% 30.29 in 10.0 mi SSE 5.8 mph - N/A   Overcast
9:51 PM 59.0 °F 50.0 °F 72% 30.30 in 10.0 mi South 5.8 mph - N/A   Overcast
10:51 PM 57.9 °F 51.1 °F 78% 30.30 in 10.0 mi South 4.6 mph - N/A   Overcast
11:51 PM 57.9 °F 48.9 °F 72% 30.29 in 10.0 mi South 3.5 mph - N/A   Overcast